Regional Weather Roundup
Issued by NWS

Home | Current Version | Previous Version | Graphics & Text | Print | Product List | Glossary On
Versions: 1 2 3 4 5 6 7 8 9 10 11 12 13 14 15 16 17 18 19 20 21 22 23 24 25 26 27 28 29 30 31 32 33 34 35 36 37 38 39 40 41 42 43 44 45 46 47 48 49 50
000
ASUS43 KOAX 262010
RWRNE

WEATHER ROUNDUP FOR NEBRASKA
NATIONAL WEATHER SERVICE OMAHA NE
300 PM CDT THU APR 26 2018

NOTES: SATELLITE DATA IS BEING USED TO AUGMENT CLOUD COVER ABOVE
       12000 FEET.
       "FAIR" INDICATES FEW OR NO CLOUDS BELOW 12,000 FEET WITH NO
       SIGNIFICANT WEATHER AND/OR OBSTRUCTIONS TO VISIBILITY.


NEZ001>004-019>022-054>056-262100-
NEBRASKA PANHANDLE

CITY           SKY/WX    TMP DP  RH WIND       PRES   REMARKS
SCOTTSBLUFF    MOSUNNY   62  30  29 N16G29    30.24F
ALLIANCE       PTSUNNY   58  30  34 N16       30.21F
CHADRON        MOSUNNY   62  28  27 W8        30.20F
GORDON         FAIR      60  29  30 NW17G24   30.20F
KIMBALL        PTSUNNY   54  25  32 NW10      30.26S
SIDNEY         PTSUNNY   57  27  31 N18G26    30.24S
$$

NEZ057>060-069>072-079>082-262100-
SOUTHWEST NEBRASKA

CITY           SKY/WX    TMP DP  RH WIND       PRES   REMARKS
NORTH PLATTE   SUNNY     64  29  26 NE23G31   30.15S
IMPERIAL       SUNNY     63  28  26 N24G40    30.18S
LEXINGTON      SUNNY     64  29  27 N25G36    30.11S
MCCOOK         SUNNY     65  32  29 N29G39    30.11R
OGALLALA       SUNNY     62  28  27 N20G28    30.20S
$$

NEZ005>010-023>029-035>040-094-262100-
NORTH CENTRAL NEBRASKA

CITY           SKY/WX    TMP DP  RH WIND       PRES   REMARKS
VALENTINE      SUNNY     63  26  24 N17G26    30.16S
AINSWORTH      SUNNY     60  28  30 N25G31    30.16R
BROKEN BOW     SUNNY     62  28  27 N26G40    30.11F
O`NEILL        SUNNY     62  28  26 N26G32    30.12R
ORD            SUNNY     61  29  29 N28G37    30.09S
THEDFORD       SUNNY     61  29  29 N20G29    30.17S
$$

NEZ041-046>049-061>064-073>077-083>087-262100-
SOUTH CENTRAL NEBRASKA

CITY           SKY/WX    TMP DP  RH WIND       PRES   REMARKS
GRAND ISLAND   CLOUDY    65  33  30 N26G38    30.06R
AURORA         MOSUNNY   65  34  31 N29G40    30.04R
HASTINGS       PTSUNNY   65  37  35 N31G39    30.05R
HEBRON         MOSUNNY   66  41  40 NW23      30.00R
HOLDREGE       PTSUNNY   63  36  36 N23G36    30.09R
KEARNEY        CLOUDY    63  30  28 N32G41    30.08R
YORK             N/A     66  39  37 N28G44    30.01S
$$

NEZ011>018-030>034-042>045-262100-
NORTHEAST NEBRASKA

CITY           SKY/WX    TMP DP  RH WIND       PRES   REMARKS
NORFOLK        SUNNY     64  28  25 N28G40    30.02R
ALBION         SUNNY     63  32  31 N21G31    30.07R
BLAIR          PTSUNNY   65  39  38 NW16G23   29.96S
COLUMBUS       SUNNY     66  38  35 N23G35    30.03R
FREMONT        MOSUNNY   69  39  33 N16G29    29.99S
TEKAMAH        MOSUNNY   69  38  32 N26G37    29.97R
WAYNE          SUNNY     64  29  27 N21G35    30.03R
$$

NEZ050>053-065>068-078-088>093-262100-
SOUTHEAST NEBRASKA

CITY           SKY/WX    TMP DP  RH WIND       PRES   REMARKS
LINCOLN        PTSUNNY   67  40  37 N21G28    29.99R
OMAHA EPPLEY   PTSUNNY   69  41  36 W10G21    29.94F
BEATRICE       SUNNY     70  46  41 W10G18    29.96F
FALLS CITY     SUNNY     66  41  40 NW7       29.96F
NEBRASKA CITY  SUNNY     70  44  38 W10G18    29.95F
PLATTSMOUTH    PTSUNNY   66  40  38 W17G25    29.95F
$$

NEZ044-045-051>053-067-262100-
OMAHA AREA

CITY           SKY/WX    TMP DP  RH WIND       PRES   REMARKS
OMAHA EPPLEY   PTSUNNY   69  41  36 W10G21    29.94F
BLAIR          PTSUNNY   65  39  38 NW16G23   29.96S
FREMONT        MOSUNNY   69  39  33 N16G29    29.99S
MILLARD        PTSUNNY   69  43  39 NW15G22   29.96S
OFFUTT AFB     PTSUNNY   68  42  37 NW16G25   29.94S
PLATTSMOUTH    PTSUNNY   66  40  38 W17G25    29.95F
WAHOO          FAIR      70  34  26 N23G29    29.97S
$$



USA.gov is the U.S. government's official web portal to all federal, state and local government web resources and services.